• In Hungary
  • List of Countries
  • For 7 days
  • Water Temperature
  • Satellite Maps
  • Weather Map
  • News
  • Weather Widgets
  • user-avatar
    Login

    Hourly Weather Mogutovo

    Today, 24 June, Sunday

    Time Temperature Precipitation Wind Pressure Humidity
    00:00 +13°C° 0.3 mm 3 mps 741 mmHg 94%
    01:00 +14°C° 0.3 mm 3 mps 741 mmHg 95%
    02:00 +15°C° 0 mm 2 mps 741 mmHg 98%
    03:00 +16°C° 0.1 mm 2 mps 741 mmHg 97%
    04:00 +17°C° 0.1 mm 3 mps 740 mmHg 97%
    05:00 +18°C° 0.1 mm 3 mps 740 mmHg 97%
    06:00 +20°C° 0 mm 3 mps 740 mmHg 91%
    07:00 +22°C° 0 mm 3 mps 740 mmHg 85%
    08:00 +25°C° 0 mm 3 mps 740 mmHg 77%
    09:00 +27°C° 0 mm 4 mps 740 mmHg 70%
    10:00 +28°C° 0 mm 4 mps 740 mmHg 63%
    11:00 +30°C° 0 mm 5 mps 739 mmHg 56%
    12:00 +30°C° 0.2 mm 5 mps 740 mmHg 56%
    13:00 +30°C° 0.2 mm 5 mps 740 mmHg 57%
    14:00 +29°C° 0 mm 5 mps 741 mmHg 58%
    15:00 +28°C° 0.1 mm 4 mps 741 mmHg 61%
    16:00 +27°C° 0.1 mm 4 mps 741 mmHg 65%
    17:00 +26°C° 0.1 mm 4 mps 741 mmHg 68%
    18:00 +24°C° 0.4 mm 3 mps 742 mmHg 76%
    19:00 +21°C° 0.4 mm 3 mps 742 mmHg 83%
    20:00 +19°C° 0.4 mm 3 mps 742 mmHg 91%
    21:00 +18°C° 0.8 mm 2 mps 742 mmHg 91%
    22:00 +17°C° 0.8 mm 2 mps 743 mmHg 92%
    23:00 +16°C° 0.8 mm 2 mps 743 mmHg 93%

    Tomorrow, 25 June, Monday

    Time Temperature Precipitation Wind Pressure Humidity
    00:00 +15°C° 0.5 mm 2 mps 743 mmHg 94%
    01:00 +14°C° 0.5 mm 2 mps 744 mmHg 94%
    02:00 +13°C° 0.5 mm 2 mps 744 mmHg 94%
    03:00 +12°C° 0.9 mm 3 mps 744 mmHg 94%
    04:00 +12°C° 0.9 mm 3 mps 744 mmHg 93%
    05:00 +12°C° 0.9 mm 3 mps 744 mmHg 92%
    06:00 +13°C° 0.1 mm 3 mps 745 mmHg 84%
    07:00 +16°C° 0.1 mm 3 mps 745 mmHg 75%
    08:00 +17°C° 0.1 mm 3 mps 745 mmHg 67%
    09:00 +19°C° 0 mm 3 mps 746 mmHg 61%
    10:00 +20°C° 0 mm 3 mps 746 mmHg 55%
    11:00 +21°C° 0 mm 3 mps 746 mmHg 50%
    12:00 +22°C° 0 mm 3 mps 746 mmHg 48%
    13:00 +24°C° 0 mm 3 mps 747 mmHg 46%
    14:00 +24°C° 0 mm 2 mps 747 mmHg 44%
    15:00 +24°C° 0 mm 2 mps 747 mmHg 46%
    16:00 +24°C° 0 mm 2 mps 747 mmHg 49%
    17:00 +24°C° 0 mm 2 mps 747 mmHg 51%
    18:00 +21°C° 0 mm 2 mps 748 mmHg 58%
    19:00 +19°C° 0 mm 2 mps 748 mmHg 66%
    20:00 +18°C° 0 mm 1 mps 748 mmHg 73%
    21:00 +16°C° 0 mm 2 mps 748 mmHg 76%
    22:00 +15°C° 0 mm 2 mps 749 mmHg 79%
    23:00 +14°C° 0 mm 2 mps 749 mmHg 81%

    Day after tomorrow, 26 June, Tuesday

    Time Temperature Precipitation Wind Pressure Humidity
    00:00 +14°C° 0 mm 1 mps 749 mmHg 84%
    01:00 +13°C° 0 mm 1 mps 750 mmHg 86%
    02:00 +13°C° 0 mm 1 mps 750 mmHg 88%
    03:00 +13°C° 0 mm 1 mps 750 mmHg 86%
    04:00 +14°C° 0 mm 1 mps 751 mmHg 83%
    05:00 +15°C° 0 mm 1 mps 751 mmHg 81%
    06:00 +18°C° 0 mm 1 mps 751 mmHg 74%
    07:00 +20°C° 0 mm 1 mps 752 mmHg 67%
    08:00 +22°C° 0 mm 1 mps 752 mmHg 60%
    09:00 +23°C° 0 mm 1 mps 752 mmHg 55%
    10:00 +24°C° 0 mm 1 mps 752 mmHg 51%
    11:00 +25°C° 0 mm 1 mps 752 mmHg 46%
    12:00 +26°C° 0 mm 1 mps 752 mmHg 45%
    13:00 +26°C° 0 mm 1 mps 752 mmHg 44%
    14:00 +26°C° 0 mm 1 mps 752 mmHg 43%
    15:00 +26°C° 0 mm 1 mps 752 mmHg 45%
    16:00 +26°C° 0 mm 1 mps 752 mmHg 47%
    17:00 +26°C° 0 mm 1 mps 752 mmHg 49%
    18:00 +24°C° 0 mm 1 mps 752 mmHg 56%
    19:00 +22°C° 0 mm 1 mps 752 mmHg 62%
    20:00 +18°C° 0 mm 0 mps 752 mmHg 69%
    21:00 +17°C° 0 mm 0 mps 753 mmHg 72%
    22:00 +16°C° 0 mm 0 mps 753 mmHg 74%
    23:00 +15°C° 0 mm 0 mps 753 mmHg 76%

    27 June, Wednesday

    Time Temperature Precipitation Wind Pressure Humidity
    00:00 +15°C° 0 mm 1 mps 753 mmHg 77%
    01:00 +15°C° 0 mm 1 mps 753 mmHg 78%
    02:00 +15°C° 0 mm 1 mps 753 mmHg 78%
    03:00 +15°C° 0 mm 1 mps 754 mmHg 77%
    04:00 +16°C° 0 mm 1 mps 754 mmHg 76%
    05:00 +18°C° 0 mm 1 mps 754 mmHg 75%
    06:00 +20°C° 0 mm 1 mps 754 mmHg 69%
    07:00 +22°C° 0 mm 1 mps 754 mmHg 62%
    08:00 +24°C° 0 mm 1 mps 754 mmHg 55%
    09:00 +25°C° 0 mm 1 mps 754 mmHg 51%
    10:00 +26°C° 0 mm 1 mps 754 mmHg 46%
    11:00 +27°C° 0 mm 1 mps 754 mmHg 42%
    12:00 +28°C° 0 mm 1 mps 754 mmHg 41%
    13:00 +28°C° 0 mm 1 mps 754 mmHg 40%
    14:00 +28°C° 0 mm 1 mps 753 mmHg 39%
    15:00 +28°C° 0 mm 1 mps 753 mmHg 42%
    16:00 +28°C° 0 mm 1 mps 753 mmHg 45%
    17:00 +27°C° 0 mm 1 mps 753 mmHg 48%
    18:00 +25°C° 0 mm 1 mps 753 mmHg 54%
    19:00 +23°C° 0 mm 1 mps 753 mmHg 61%
    20:00 +21°C° 0 mm 1 mps 753 mmHg 68%
    21:00 +20°C° 0 mm 1 mps 753 mmHg 70%
    22:00 +19°C° 0 mm 1 mps 754 mmHg 72%
    23:00 +18°C° 0 mm 1 mps 754 mmHg 73%

    28 June, Thursday

    Time Temperature Precipitation Wind Pressure Humidity
    00:00 +16°C° 0 mm 1 mps 754 mmHg 75%
    01:00 +16°C° 0 mm 1 mps 754 mmHg 77%
    02:00 +15°C° 0 mm 1 mps 754 mmHg 79%
    03:00 +16°C° 0 mm 1 mps 754 mmHg 78%
    04:00 +18°C° 0 mm 1 mps 754 mmHg 77%
    05:00 +18°C° 0 mm 1 mps 754 mmHg 76%
    06:00 +20°C° 0 mm 1 mps 754 mmHg 70%
    07:00 +22°C° 0 mm 1 mps 754 mmHg 64%
    08:00 +24°C° 0 mm 1 mps 754 mmHg 57%
    09:00 +25°C° 0 mm 1 mps 754 mmHg 53%
    10:00 +27°C° 0 mm 1 mps 754 mmHg 49%
    11:00 +28°C° 0 mm 1 mps 754 mmHg 45%
    12:00 +28°C° 0 mm 1 mps 753 mmHg 43%
    13:00 +28°C° 0 mm 1 mps 753 mmHg 41%
    14:00 +29°C° 0 mm 2 mps 753 mmHg 39%
    15:00 +28°C° 0 mm 2 mps 752 mmHg 42%
    16:00 +28°C° 0 mm 2 mps 752 mmHg 45%
    17:00 +28°C° 0 mm 2 mps 752 mmHg 48%
    18:00 +25°C° 0 mm 2 mps 752 mmHg 55%
    19:00 +23°C° 0 mm 1 mps 752 mmHg 62%
    20:00 +21°C° 0 mm 1 mps 752 mmHg 70%
    21:00 +20°C° 0 mm 1 mps 751 mmHg 70%
    22:00 +19°C° 0 mm 1 mps 751 mmHg 70%
    23:00 +18°C° 0 mm 1 mps 751 mmHg 71%

    29 June, Friday

    Time Temperature Precipitation Wind Pressure Humidity
    00:00 +18°C° 0 mm 1 mps 751 mmHg 71%
    01:00 +16°C° 0 mm 1 mps 751 mmHg 72%
    02:00 +16°C° 0 mm 1 mps 751 mmHg 73%
    03:00 +16°C° 0 mm 1 mps 751 mmHg 73%
    04:00 +18°C° 0 mm 1 mps 751 mmHg 73%
    05:00 +19°C° 0 mm 1 mps 751 mmHg 73%
    06:00 +21°C° 0 mm 1 mps 751 mmHg 68%
    07:00 +23°C° 0 mm 1 mps 751 mmHg 63%
    08:00 +25°C° 0 mm 1 mps 751 mmHg 57%
    09:00 +26°C° 0 mm 2 mps 750 mmHg 54%
    10:00 +27°C° 0 mm 3 mps 750 mmHg 50%
    11:00 +28°C° 0 mm 3 mps 749 mmHg 46%
    12:00 +28°C° 0 mm 3 mps 749 mmHg 46%
    13:00 +29°C° 0 mm 3 mps 749 mmHg 45%
    14:00 +29°C° 0 mm 3 mps 748 mmHg 45%
    15:00 +29°C° 0 mm 3 mps 748 mmHg 47%
    16:00 +28°C° 0 mm 3 mps 748 mmHg 49%
    17:00 +28°C° 0 mm 3 mps 747 mmHg 51%
    18:00 +26°C° 0 mm 3 mps 747 mmHg 59%
    19:00 +24°C° 0 mm 3 mps 747 mmHg 67%
    20:00 +21°C° 0 mm 2 mps 746 mmHg 74%
    21:00 +20°C° 0 mm 3 mps 746 mmHg 75%
    22:00 +20°C° 0 mm 3 mps 746 mmHg 76%
    23:00 +19°C° 0 mm 3 mps 746 mmHg 76%
    Show more